Location: *
(49.1466°N, 1.6216°E)
Time: 19:58:21
(UTC+00:00)

Meteor 1-15 Rocket - Pass Details

Date: 25 September 2023
Orbit: 839 x 906 km, 81.2° (Epoch: 11 December)

Event Time Altitude Azimuth Distance (km) Brightness Sun altitude
Exits shadow 21:02:52 67° 280° (W) 942 4.5 -30.7°
Maximum altitude 21:02:56 67° 284° (WNW) 942 4.5 -30.7°
Drops below altitude 10° 21:08:36 10° 7° (N) 2,502 7.0 -31.4°
Sets 21:11:02 0° 11° (N) 3,434 7.8 -31.7°
